Simultaneous Nadir Overpasses (SNOs) Predictions

Prediction of SNOs between AQUA and GOES-15 Satellite Orbit:

Table of predicted SNOs for the next 14.0 days since TLE Epoch: 4/3/2020
Index Date Time (AQUA) AQUA Lat,Lon GOES-15 Lat,Lon Distance(km) Time Diff (sec)
1 04/04/2020 22:04:30 0.34,-127.22 0.24,-127.74 58.35 80
2 04/06/2020 21:52:19 0.98,-124.27 0.24,-127.66 385.79 80
3 04/07/2020 10:13:34 0.16,-129.42 -0.22,-127.62 204.44 80
4 04/09/2020 10:01:22 -0.43,-126.46 -0.23,-127.54 122.39 80
5 04/09/2020 22:22:46 -0.67,-131.65 0.21,-127.53 468.45 80
6 04/11/2020 09:49:11 -1.09,-123.51 -0.23,-127.45 448.72 80
7 04/11/2020 22:10:34 -0.07,-128.69 0.21,-127.44 142.13 80
8 04/13/2020 21:58:22 0.53,-125.73 0.21,-127.35 183.86 56
9 04/14/2020 10:19:38 0.54,-130.89 -0.19,-127.31 405.76 80
10 04/16/2020 10:07:25 -0.01,-127.91 -0.19,-127.22 80.19 80




NCC Satellite Simultaneous Nadir Overpasses (SNOs) Prediction Service
